Date String (YYYY-MM-DD hh:mm:ss) UTC,Instrument flags,Ambient pressure (hPa),Sample flow (lpm),Bypass flow (lpm),Sample temperature (°C),Ambient temperature (°C),ASC tube jacket temperature (°C),LED temperature (°C),Box temperature (°C),Sample RH (%),Span deviation,Mass concentration (μg/m³),Mass concentration (μg/m³),Mass concentration (μg/m³)
DateTimeUTC,F1_M11,P_M11,Q1_M11,Q2_M11,T1_M11,T2_M11,T3_M11,T4_M11,T5_M11,U1_M11,ZSPAN_M11,X0_M11,X2_M11,X1_M11
2021-09-07 15:00:00,,0833.4,5.00,0.00,29.8,28.4,00.0,38.9,31.5,10.6,0002.0,0039.10,0025.82,0024.18
2021-09-07 15:01:00,,0833.5,5.01,0.00,29.8,28.6,00.0,38.9,31.6,10.6,0002.2,0040.33,0025.97,0024.30
2021-09-07 15:02:00,,0833.4,4.99,0.00,29.9,28.7,00.0,38.9,31.7,10.7,0001.9,0038.88,0026.06,0024.37
2021-09-07 15:03:00,,0833.4,5.01,0.00,29.9,28.8,00.0,38.9,31.7,11.1,0001.8,0038.87,0026.08,0024.39
2021-09-07 15:04:00,,0833.4,5.00,0.00,29.9,28.9,00.0,38.9,31.7,10.9,0002.3,0039.35,0026.07,0024.39
2021-09-07 15:05:00,,0833.5,5.01,0.00,30.0,29.0,00.0,39.0,31.8,11.2,0002.4,0039.58,0026.03,0024.31
2021-09-07 15:06:00,,0833.6,5.00,0.00,30.0,29.1,00.0,39.0,31.8,11.7,0002.5,0039.48,0026.00,0024.30
2021-09-07 15:07:00,,0833.5,4.99,0.00,30.0,29.1,00.0,39.0,31.9,12.3,0002.5,0039.10,0025.97,0024.30
2021-09-07 15:08:00,,0833.6,5.01,0.00,30.1,29.2,00.0,39.0,31.9,12.5,0002.1,0039.12,0025.96,0024.30
2021-09-07 15:09:00,,0833.5,4.99,0.00,30.0,28.0,00.0,39.0,31.6,11.4,0002.3,0039.77,0026.00,0024.33
2021-09-07 15:10:00,,0833.5,5.00,0.00,29.9,26.3,00.0,39.0,31.2,11.5,0002.3,0041.04,0026.23,0024.49
2021-09-07 15:11:00,,0833.6,5.01,0.00,29.8,26.3,00.0,39.0,31.1,11.0,0001.8,0041.29,0026.39,0024.63
2021-09-07 15:12:00,,0833.6,5.00,0.00,29.7,26.7,00.0,38.9,31.2,10.8,0001.2,0040.10,0026.57,0024.79
2021-09-07 15:13:00,,0833.5,5.01,0.00,29.7,27.2,00.0,38.9,31.2,10.9,0000.8,0040.40,0026.75,0024.98
2021-09-07 15:14:00,,0833.6,4.99,0.00,29.7,27.5,00.0,38.9,31.3,11.2,0000.8,0040.67,0026.92,0025.18
2021-09-07 15:15:00,,0833.5,5.01,0.00,29.7,27.8,00.0,38.8,31.3,11.1,0000.8,0041.08,0027.23,0025.44
2021-09-07 15:16:00,,0833.5,4.98,0.00,29.7,28.1,00.0,38.8,31.4,10.9,0000.9,0041.73,0027.48,0025.72
2021-09-07 15:17:00,,0833.6,5.00,0.00,29.7,28.3,00.0,38.8,31.5,11.2,0000.6,0042.22,0027.79,0026.02
2021-09-07 15:18:00,,0833.6,5.00,0.00,29.8,28.5,00.0,38.8,31.5,11.6,0000.7,0044.10,0028.11,0026.32
2021-09-07 15:19:00,,0833.6,4.99,0.00,29.8,28.6,00.0,38.9,31.6,11.5,0001.4,0044.33,0028.35,0026.56
2021-09-07 15:20:00,,0833.6,4.99,0.00,29.8,28.7,00.0,38.9,31.6,11.2,0001.5,0044.55,0028.51,0026.74
2021-09-07 15:21:00,,0833.6,4.99,0.00,29.9,28.9,00.0,38.9,31.7,11.0,0001.5,0043.96,0028.51,0026.81
2021-09-07 15:22:00,,0833.6,5.02,0.00,29.9,29.0,00.0,38.9,31.7,11.2,0001.8,0043.23,0028.47,0026.82
2021-09-07 15:23:00,,0833.6,4.99,0.00,29.9,29.0,00.0,38.9,31.8,11.7,0002.1,0042.99,0028.42,0026.80
2021-09-07 15:24:00,,0833.6,5.00,0.00,30.0,29.1,00.0,38.9,31.8,12.0,0003.1,0042.30,0028.43,0026.80
2021-09-07 15:25:00,,0833.7,5.00,0.00,30.0,29.1,00.0,39.0,31.9,11.3,0003.8,0043.12,0028.49,0026.83
2021-09-07 15:26:00,,0833.7,5.00,0.00,30.0,28.1,00.0,39.0,31.6,11.2,0004.0,0043.94,0028.57,0026.91
2021-09-07 15:27:00,,0833.7,5.00,0.00,29.9,26.5,00.0,38.9,31.2,11.4,0004.0,0044.39,0028.67,0027.01
2021-09-07 15:28:00,,0833.7,5.00,0.00,29.8,26.4,00.0,38.9,31.1,11.4,0004.2,0044.84,0028.80,0027.06
2021-09-07 15:29:00,,0833.7,4.99,0.00,29.7,26.8,00.0,38.9,31.2,11.7,0003.9,0043.88,0028.92,0027.08
2021-09-07 15:30:00,,0833.7,5.00,0.00,29.7,27.2,00.0,38.9,31.2,11.4,0003.5,0043.59,0029.00,0027.14
2021-09-07 15:31:00,,0833.7,5.00,0.00,29.7,27.6,00.0,38.8,31.3,11.4,0003.1,0043.76,0029.16,0027.24
2021-09-07 15:32:00,,0833.7,5.01,0.00,29.7,27.9,00.0,38.8,31.4,11.1,0003.0,0043.82,0029.30,0027.33
2021-09-07 15:33:00,,0833.7,4.99,0.00,29.7,28.2,00.0,38.8,31.4,10.9,0002.8,0043.78,0029.56,0027.49
2021-09-07 15:34:00,,0833.7,5.00,0.00,29.7,28.4,00.0,38.8,31.5,11.0,0002.5,0044.02,0029.77,0027.68
2021-09-07 15:35:00,,0833.7,5.00,0.00,29.8,28.5,00.0,38.8,31.5,11.1,0002.2,0044.32,0029.95,0027.84
2021-09-07 15:36:00,,0833.8,5.01,0.00,29.8,28.7,00.0,38.8,31.6,11.2,0002.1,0043.48,0030.06,0027.94
2021-09-07 15:37:00,,0833.8,5.00,0.00,29.8,28.8,00.0,38.8,31.7,10.8,0001.5,0042.77,0030.18,0028.07
2021-09-07 15:38:00,,0833.8,4.99,0.00,29.9,28.9,00.0,38.9,31.7,10.7,0001.1,0043.20,0030.37,0028.21
2021-09-07 15:39:00,,0833.8,5.00,0.00,29.9,29.0,00.0,38.9,31.7,10.8,0000.6,0043.96,0030.51,0028.37
2021-09-07 15:40:00,,0833.8,5.01,0.00,29.9,29.0,00.0,38.9,31.8,11.5,0000.7,0044.84,0030.60,0028.53
2021-09-07 15:41:00,,0833.8,5.00,0.00,30.0,29.1,00.0,38.9,31.8,11.3,0000.8,0045.27,0030.84,0028.72
2021-09-07 15:42:00,,0833.8,4.99,0.00,30.0,28.1,00.0,38.9,31.6,11.1,0001.2,0045.31,0030.90,0028.80
2021-09-07 15:43:00,,0833.9,5.00,0.00,29.8,26.4,00.0,38.9,31.1,11.7,0001.4,0045.99,0031.01,0028.89
2021-09-07 15:44:00,,0833.8,5.01,0.00,29.7,26.3,00.0,38.9,31.0,11.6,0001.3,0046.58,0030.91,0028.86
2021-09-07 15:45:00,,0833.8,4.99,0.00,29.7,26.7,00.0,38.8,31.1,11.8,0001.3,0047.59,0030.78,0028.80
2021-09-07 15:46:00,,0833.9,5.00,0.00,29.6,27.2,00.0,38.8,31.2,12.1,0001.3,0047.96,0030.66,0028.70
2021-09-07 15:47:00,,0833.9,4.99,0.00,29.6,27.6,00.0,38.8,31.3,12.1,0000.9,0048.46,0030.65,0028.68
2021-09-07 15:48:00,,0833.9,5.01,0.00,29.6,27.9,00.0,38.8,31.3,12.3,0001.2,0049.87,0030.60,0028.59
2021-09-07 15:49:00,,0833.9,5.00,0.00,29.7,28.1,00.0,38.8,31.4,11.8,0001.8,0048.59,0030.48,0028.50
2021-09-07 15:50:00,,0833.8,5.00,0.00,29.7,28.3,00.0,38.8,31.5,11.9,0002.3,0047.81,0030.41,0028.43
2021-09-07 15:51:00,,0833.9,5.00,0.00,29.7,28.5,00.0,38.8,31.5,12.5,0001.6,0047.44,0030.37,0028.34
2021-09-07 15:52:00,,0834.0,5.00,0.00,29.8,28.6,00.0,38.8,31.6,12.7,0001.5,0047.26,0030.24,0028.21
2021-09-07 15:53:00,,0833.9,5.00,0.00,29.8,28.8,00.0,38.8,31.6,12.4,0001.5,0047.64,0030.21,0028.15
2021-09-07 15:54:00,,0834.0,4.98,0.00,29.9,28.9,00.0,38.8,31.7,12.5,0001.1,0048.52,0030.16,0028.07
2021-09-07 15:55:00,,0834.0,5.01,0.00,29.9,29.0,00.0,38.8,31.7,12.2,0001.1,0047.98,0030.28,0028.16
2021-09-07 15:56:00,,0834.0,5.00,0.00,29.9,28.6,00.0,38.9,31.6,12.8,0001.3,0048.08,0030.44,0028.18
2021-09-07 15:57:00,,0834.0,4.99,0.00,29.8,26.8,00.0,38.9,31.2,12.9,0001.6,0047.72,0030.52,0028.22
2021-09-07 15:58:00,,0834.0,5.01,0.00,29.7,26.1,00.0,38.8,31.0,12.8,0001.6,0048.67,0030.63,0028.29
2021-09-07 15:59:00,,0834.0,5.00,0.00,29.6,26.5,00.0,38.8,31.0,12.6,0002.0,0048.66,0030.68,0028.35
